Regional Weather Roundup
Issued by NWS

Home | Current Version | Previous Version | Text Only | Print | Product List | Glossary On
Versions: 1 2 3 4 5 6 7 8 9 10 11 12 13 14 15 16 17 18 19 20 21 22 23 24 25 26 27 28 29 30 31 32 33 34 35 36 37 38 39 40 41 42 43 44 45 46 47 48 49 50
000
ASPQ40 PGUM 260912
RWRPQ
WEATHER ROUNDUP FOR THE MARIANAS AND MICRONESIA
NATIONAL WEATHER SERVICE TIYAN GU
700 PM CHST WED NOV 26 2014

GUZ001>004-261000-
MARIANA ISLANDS-

CITY           SKY/WX    TMP DP  RH WIND       PRES   REMARKS
GUAM AIRPORT   CLEAR     82  73  74 NE9       29.85R
ANDERSEN AFB   PTCLDY    81  73  78 NE17      29.85R
ROTA AIRPORT   PTCLDY    79  73  83 NE12      29.85R
TINIAN AP      PTCLDY    81  75  83 E10       29.85
SAIPAN AP      PTCLDY    81  73  78 E12       29.86R

$$

PMZ161-261000-
REPUBLIC OF PALAU-

CITY           SKY/WX    TMP DP  RH WIND       PRES   REMARKS
KOROR AP       MOCLDY    82  77  83 E3        29.78R HX  91
KOROR WSO      CLOUDY    84  77  79 CALM      29.77R HX  94

$$

PMZ171>174-261000-
FEDERATED STATES OF MICRONESIA-

CITY           SKY/WX    TMP DP  RH WIND       PRES   REMARKS
YAP AIRPORT    MOCLDY    82  77  83 VRB5      29.77R HX  91
CHUUK AP       LGT RAIN  79  77  94 CALM      29.72R
POHNPEI AP     NOT AVBL
POHNPEI WSO    CLOUDY    82  79  89 E9        29.78R HX  93
KOSRAE AP      NOT AVBL

$$

PMZ181-261000-
REPUBLIC OF THE MARSHALL ISLANDS-

CITY           SKY/WX    TMP DP  RH WIND       PRES   REMARKS
KWAJALEIN AP   CLEAR     84  75  74 NE20G25   29.77R HX  92
MAJURO AP      NOT AVBL
MAJURO WSO     MOCLDY    84  77  79 E17       29.73R HX  94

$$




USA.gov is the U.S. government's official web portal to all federal, state and local government web resources and services.